User: anonymous   Login
Location: Unspecified
(0.0000°N, 0.0000°E)
Time: 22:02:32
(UTC+00:00)
Language:

SWISSCUBE - Orbit

View from above orbital plane
View from above orbital plane
View from above satellite
View from above satellite

Ground track
Ground track

The orbit data is extracted from the following two-line orbital elements,

1 35932U 09051B   15209.83177190  .00000327  00000-0  85963-4 0  9997
2 35932 098.4129 328.8426 0007312 202.0350 158.0533 14.55470507310024
Epoch (UTC): 28 July 2015 19:57:45
Eccentricity: 0.0007312
inclination: 98.4129°
perigee height: 702 km
apogee height: 713 km
right ascension of ascending node: 328.8426°
argument of perigee: 202.0350°
revolutions per day: 14.55470507
mean anomaly at epoch: 158.0533°
orbit number at epoch: 31002

The dashed part of the orbit path shows where the satellite is in the earth's shadow,  

DLR